Time,TemperatureF,DewpointF,PressureIn,WindDirection,WindDirectionDegrees,WindSpeedMPH,WindSpeedGustMPH,Humidity,HourlyPrecipIn,Conditions,Clouds,dailyrainin,SoftwareType,DateUTC
2013-04-17 00:00:00,76.2,67.3,29.83,SSE,148,8.0,9.0,74,0.00,,,0.00,Wunderground v.1.15,2013-04-17 05:00:00,
2013-04-17 00:05:00,76.2,67.3,29.83,SSE,160,8.0,12.0,74,0.00,,,0.00,Wunderground v.1.15,2013-04-17 05:05:00,
2013-04-17 00:09:00,76.1,67.0,29.83,SSE,152,10.0,13.0,74,0.00,,,0.00,weatherlink.com 1.10,2013-04-17 05:09:00,
2013-04-17 00:10:00,76.0,67.1,29.83,South,181,8.0,8.0,74,0.00,,,0.00,Wunderground v.1.15,2013-04-17 05:10:00,
2013-04-17 00:20:00,75.8,67.3,29.83,SE,128,8.0,9.0,75,0.00,,,0.00,Wunderground v.1.15,2013-04-17 05:20:00,
2013-04-17 00:24:00,75.7,67.0,29.83,SE,142,7.0,16.0,75,0.00,,,0.00,weatherlink.com 1.10,2013-04-17 05:24:00,
2013-04-17 00:30:00,75.6,67.5,29.83,SSE,167,8.0,11.0,76,0.00,,,0.00,Wunderground v.1.15,2013-04-17 05:30:00,
2013-04-17 00:35:00,75.5,67.4,29.84,SE,141,8.0,11.0,76,0.00,,,0.00,Wunderground v.1.15,2013-04-17 05:35:00,
2013-04-17 00:39:00,75.4,67.0,29.84,South,178,12.0,17.0,76,0.00,,,0.00,weatherlink.com 1.10,2013-04-17 05:39:00,
2013-04-17 00:45:00,75.3,67.6,29.84,South,178,9.0,12.0,77,0.00,,,0.00,Wunderground v.1.15,2013-04-17 05:45:00,
2013-04-17 00:50:00,75.1,67.4,29.84,South,179,8.0,12.0,77,0.00,,,0.00,Wunderground v.1.15,2013-04-17 05:50:00,
2013-04-17 00:54:00,75.0,67.0,29.84,South,182,6.0,14.0,77,0.00,,,0.00,weatherlink.com 1.10,2013-04-17 05:54:00,
2013-04-17 01:00:00,74.9,67.2,29.84,South,173,9.0,9.0,77,0.00,,,0.00,Wunderground v.1.15,2013-04-17 06:00:00,
2013-04-17 01:05:00,74.7,67.4,29.84,South,188,10.0,12.0,78,0.00,,,0.00,Wunderground v.1.15,2013-04-17 06:05:00,
2013-04-17 01:09:00,74.5,67.0,29.84,South,183,7.0,17.0,78,0.00,,,0.00,weatherlink.com 1.10,2013-04-17 06:09:00,
2013-04-17 01:15:00,74.3,67.0,29.84,South,176,12.0,14.0,78,0.00,,,0.00,Wunderground v.1.15,2013-04-17 06:15:00,
2013-04-17 01:24:00,74.1,66.0,29.84,SSE,153,9.0,19.0,77,0.00,,,0.00,weatherlink.com 1.10,2013-04-17 06:24:00,
2013-04-17 01:25:00,74.1,66.4,29.84,SSW,198,12.0,13.0,77,0.00,,,0.00,Wunderground v.1.15,2013-04-17 06:25:00,
2013-04-17 01:30:00,73.9,66.6,29.84,South,190,12.0,12.0,78,0.00,,,0.00,Wunderground v.1.15,2013-04-17 06:30:00,
2013-04-17 01:39:00,73.7,66.0,29.85,South,173,9.0,20.0,78,0.00,,,0.00,weatherlink.com 1.10,2013-04-17 06:39:00,
2013-04-17 01:45:00,73.4,66.5,29.85,South,188,10.0,12.0,79,0.00,,,0.00,Wunderground v.1.15,2013-04-17 06:45:00,
2013-04-17 01:50:00,73.3,66.4,29.85,South,184,9.0,12.0,79,0.00,,,0.00,Wunderground v.1.15,2013-04-17 06:50:00,
2013-04-17 01:54:00,73.2,66.0,29.85,SSE,167,10.0,17.0,79,0.00,,,0.00,weatherlink.com 1.10,2013-04-17 06:54:00,
2013-04-17 02:00:00,73.1,66.6,29.84,South,188,11.0,11.0,80,0.00,,,0.00,Wunderground v.1.15,2013-04-17 07:00:00,
2013-04-17 02:09:00,72.9,66.0,29.84,SSE,166,11.0,17.0,80,0.00,,,0.00,weatherlink.com 1.10,2013-04-17 07:09:00,
2013-04-17 02:15:00,72.8,66.3,29.84,South,169,10.0,10.0,80,0.00,,,0.00,Wunderground v.1.15,2013-04-17 07:15:00,
2013-04-17 02:20:00,72.8,66.3,29.84,SSW,200,10.0,15.0,80,0.00,,,0.00,Wunderground v.1.15,2013-04-17 07:20:00,
2013-04-17 02:25:00,72.7,66.5,29.83,SSE,155,10.0,15.0,81,0.00,,,0.00,Wunderground v.1.15,2013-04-17 07:25:00,
2013-04-17 02:26:00,72.7,67.0,29.84,South,191,12.0,15.0,81,0.00,,,0.00,weatherlink.com 1.10,2013-04-17 07:26:00,
2013-04-17 02:35:00,72.4,66.6,29.83,SSE,161,11.0,11.0,82,0.00,,,0.00,Wunderground v.1.15,2013-04-17 07:35:00,
2013-04-17 02:40:00,72.3,66.5,29.83,South,169,11.0,11.0,82,0.00,,,0.00,Wunderground v.1.15,2013-04-17 07:40:00,
2013-04-17 02:41:00,72.3,67.0,29.84,SSE,164,9.0,21.0,82,0.00,,,0.00,weatherlink.com 1.10,2013-04-17 07:41:00,
2013-04-17 02:50:00,72.2,66.4,29.83,South,187,9.0,9.0,82,0.00,,,0.00,Wunderground v.1.15,2013-04-17 07:50:00,
2013-04-17 02:55:00,72.1,66.6,29.82,South,172,10.0,13.0,83,0.00,,,0.00,Wunderground v.1.15,2013-04-17 07:55:00,
2013-04-17 02:56:00,72.1,67.0,29.82,SSE,161,7.0,20.0,83,0.00,,,0.00,weatherlink.com 1.10,2013-04-17 07:56:00,
2013-04-17 03:00:00,72.1,66.6,29.83,SSE,157,10.0,10.0,83,0.00,,,0.00,Wunderground v.1.15,2013-04-17 08:00:00,
2013-04-17 03:05:00,72.1,66.6,29.82,SE,140,9.0,10.0,83,0.00,,,0.00,Wunderground v.1.15,2013-04-17 08:05:00,
2013-04-17 03:10:00,72.1,66.6,29.82,South,173,9.0,9.0,83,0.00,,,0.00,Wunderground v.1.15,2013-04-17 08:10:00,
2013-04-17 03:15:00,72.1,66.6,29.81,SSE,156,9.0,9.0,83,0.00,,,0.00,Wunderground v.1.15,2013-04-17 08:15:00,
2013-04-17 03:20:00,72.0,66.6,29.81,SSW,194,9.0,9.0,83,0.00,,,0.00,Wunderground v.1.15,2013-04-17 08:20:00,
2013-04-17 03:25:00,72.0,66.6,29.82,SSE,153,9.0,9.0,83,0.00,,,0.00,Wunderground v.1.15,2013-04-17 08:25:00,
2013-04-17 03:26:00,72.0,67.0,29.82,SSE,167,6.0,18.0,83,0.00,,,0.00,weatherlink.com 1.10,2013-04-17 08:26:00,
2013-04-17 03:35:00,71.9,66.8,29.82,SE,146,9.0,16.0,84,0.00,,,0.00,Wunderground v.1.15,2013-04-17 08:35:00,
2013-04-17 03:40:00,71.9,66.8,29.81,SE,142,9.0,10.0,84,0.00,,,0.00,Wunderground v.1.15,2013-04-17 08:40:00,
2013-04-17 03:41:00,71.9,67.0,29.81,SE,125,10.0,15.0,84,0.00,,,0.00,weatherlink.com 1.10,2013-04-17 08:41:00,
2013-04-17 03:45:00,71.9,66.8,29.81,SSW,195,8.0,11.0,84,0.00,,,0.00,Wunderground v.1.15,2013-04-17 08:45:00,
2013-04-17 03:55:00,71.9,66.8,29.81,SSE,162,8.0,14.0,84,0.00,,,0.00,Wunderground v.1.15,2013-04-17 08:55:00,
2013-04-17 03:56:00,71.9,67.0,29.81,South,172,9.0,16.0,84,0.00,,,0.00,weatherlink.com 1.10,2013-04-17 08:56:00,
2013-04-17 04:05:00,72.0,66.9,29.81,SSE,163,8.0,16.0,84,0.00,,,0.00,Wunderground v.1.15,2013-04-17 09:05:00,
2013-04-17 04:10:00,72.0,66.9,29.81,South,184,10.0,10.0,84,0.00,,,0.00,Wunderground v.1.15,2013-04-17 09:10:00,
2013-04-17 04:20:00,72.1,67.0,29.81,South,183,10.0,11.0,84,0.00,,,0.00,Wunderground v.1.15,2013-04-17 09:20:00,
2013-04-17 04:26:00,72.1,67.0,29.81,SSE,165,9.0,18.0,85,0.00,,,0.00,weatherlink.com 1.10,2013-04-17 09:26:00,
2013-04-17 04:30:00,72.2,67.4,29.80,South,177,11.0,11.0,85,0.00,,,0.00,Wunderground v.1.15,2013-04-17 09:30:00,
2013-04-17 04:40:00,72.3,67.5,29.81,South,173,12.0,13.0,85,0.00,,,0.00,Wunderground v.1.15,2013-04-17 09:40:00,
2013-04-17 04:41:00,72.3,68.0,29.80,South,174,11.0,20.0,85,0.00,,,0.00,weatherlink.com 1.10,2013-04-17 09:41:00,
2013-04-17 04:50:00,72.1,67.3,29.80,South,186,11.0,11.0,85,0.00,,,0.00,Wunderground v.1.15,2013-04-17 09:50:00,
2013-04-17 04:56:00,72.0,68.0,29.81,South,187,15.0,19.0,86,0.00,,,0.00,weatherlink.com 1.10,2013-04-17 09:56:00,
2013-04-17 05:05:00,71.9,67.8,29.81,SSE,165,11.0,11.0,87,0.00,,,0.00,Wunderground v.1.15,2013-04-17 10:05:00,
2013-04-17 05:11:00,71.9,68.0,29.81,South,183,7.0,19.0,87,0.00,,,0.00,weatherlink.com 1.10,2013-04-17 10:11:00,
2013-04-17 05:15:00,71.9,67.8,29.81,SSW,194,9.0,11.0,87,0.00,,,0.00,Wunderground v.1.15,2013-04-17 10:15:00,
2013-04-17 05:25:00,71.7,68.0,29.81,South,169,10.0,12.0,88,0.00,,,0.00,Wunderground v.1.15,2013-04-17 10:25:00,
2013-04-17 05:27:00,71.6,68.0,29.81,SSE,164,16.0,16.0,88,0.00,,,0.00,weatherlink.com 1.10,2013-04-17 10:27:00,
2013-04-17 05:35:00,71.7,68.3,29.81,South,171,10.0,11.0,89,0.00,,,0.00,Wunderground v.1.15,2013-04-17 10:35:00,
2013-04-17 05:44:00,71.9,69.0,29.81,SSE,168,10.0,18.0,89,0.00,,,0.00,weatherlink.com 1.10,2013-04-17 10:44:00,
2013-04-17 05:50:00,71.9,68.5,29.81,South,169,9.0,9.0,89,0.00,,,0.00,Wunderground v.1.15,2013-04-17 10:50:00,
2013-04-17 05:57:00,71.8,69.0,29.81,SSE,162,10.0,18.0,89,0.00,,,0.00,weatherlink.com 1.10,2013-04-17 10:57:00,
2013-04-17 06:05:00,71.4,68.3,29.81,SSE,155,10.0,10.0,90,0.00,,,0.00,Wunderground v.1.15,2013-04-17 11:05:00,
2013-04-17 06:10:00,71.2,68.4,29.81,SSE,153,8.0,8.0,91,0.00,,,0.00,Wunderground v.1.15,2013-04-17 11:10:00,
2013-04-17 06:12:00,71.2,69.0,29.81,SE,140,9.0,13.0,91,0.00,,,0.00,weatherlink.com 1.10,2013-04-17 11:12:00,
2013-04-17 06:20:00,71.0,68.2,29.81,SSE,163,8.0,12.0,91,0.00,,,0.00,Wunderground v.1.15,2013-04-17 11:20:00,
2013-04-17 06:25:00,70.9,68.5,29.81,South,180,8.0,12.0,92,0.00,,,0.00,Wunderground v.1.15,2013-04-17 11:25:00,
2013-04-17 06:27:00,70.9,69.0,29.81,SSE,152,7.0,14.0,92,0.00,,,0.00,weatherlink.com 1.10,2013-04-17 11:27:00,
2013-04-17 06:35:00,70.8,68.4,29.81,SSE,154,7.0,9.0,92,0.00,,,0.00,Wunderground v.1.15,2013-04-17 11:35:00,
2013-04-17 06:40:00,70.8,68.4,29.82,SSE,168,8.0,10.0,92,0.00,,,0.00,Wunderground v.1.15,2013-04-17 11:40:00,
2013-04-17 06:42:00,70.8,69.0,29.82,South,178,8.0,15.0,93,0.00,,,0.00,weatherlink.com 1.10,2013-04-17 11:42:00,
2013-04-17 06:45:00,70.8,68.7,29.82,South,183,9.0,10.0,93,0.00,,,0.00,Wunderground v.1.15,2013-04-17 11:45:00,
2013-04-17 06:55:00,70.8,68.7,29.81,SSE,154,9.0,11.0,93,0.00,,,0.00,Wunderground v.1.15,2013-04-17 11:55:00,
2013-04-17 06:57:00,70.8,69.0,29.81,SSE,161,7.0,13.0,93,0.00,,,0.00,weatherlink.com 1.10,2013-04-17 11:57:00,
2013-04-17 07:00:00,70.9,68.8,29.81,SSE,161,9.0,9.0,93,0.00,,,0.00,Wunderground v.1.15,2013-04-17 12:00:00,
2013-04-17 07:05:00,71.0,68.9,29.81,South,186,9.0,9.0,93,0.00,,,0.00,Wunderground v.1.15,2013-04-17 12:05:00,
2013-04-17 07:12:00,71.3,69.0,29.81,South,169,7.0,19.0,92,0.00,,,0.00,weatherlink.com 1.10,2013-04-17 12:12:00,
2013-04-17 07:20:00,71.5,69.1,29.82,South,173,11.0,11.0,92,0.00,,,0.00,Wunderground v.1.15,2013-04-17 12:20:00,
2013-04-17 07:25:00,71.5,69.1,29.82,SSE,157,10.0,11.0,92,0.00,,,0.00,Wunderground v.1.15,2013-04-17 12:25:00,
2013-04-17 07:27:00,71.6,69.0,29.82,South,169,10.0,15.0,92,0.00,,,0.00,weatherlink.com 1.10,2013-04-17 12:27:00,
2013-04-17 07:35:00,71.7,69.3,29.82,South,182,10.0,11.0,92,0.00,,,0.00,Wunderground v.1.15,2013-04-17 12:35:00,
2013-04-17 07:40:00,71.7,69.3,29.82,South,186,10.0,10.0,92,0.00,,,0.00,Wunderground v.1.15,2013-04-17 12:40:00,
2013-04-17 07:42:00,71.7,69.0,29.82,South,169,8.0,18.0,92,0.00,,,0.00,weatherlink.com 1.10,2013-04-17 12:42:00,
2013-04-17 07:50:00,71.7,69.3,29.82,SSE,167,9.0,11.0,92,0.00,,,0.00,Wunderground v.1.15,2013-04-17 12:50:00,
2013-04-17 07:55:00,71.6,69.2,29.82,SSW,207,9.0,11.0,92,0.00,,,0.00,Wunderground v.1.15,2013-04-17 12:55:00,
2013-04-17 07:59:00,71.6,69.0,29.82,SSE,162,9.0,18.0,92,0.00,,,0.00,weatherlink.com 1.10,2013-04-17 12:59:00,
2013-04-17 08:05:00,71.6,69.2,29.82,South,169,10.0,12.0,92,0.00,,,0.00,Wunderground v.1.15,2013-04-17 13:05:00,
2013-04-17 08:14:00,71.7,69.0,29.82,SSE,152,13.0,18.0,92,0.00,,,0.00,weatherlink.com 1.10,2013-04-17 13:14:00,
2013-04-17 08:20:00,71.7,69.3,29.82,SSE,168,9.0,10.0,92,0.00,,,0.00,Wunderground v.1.15,2013-04-17 13:20:00,
2013-04-17 08:25:00,71.8,69.0,29.82,SSE,163,10.0,10.0,91,0.00,,,0.00,Wunderground v.1.15,2013-04-17 13:25:00,
2013-04-17 08:28:00,71.9,69.0,29.82,SSW,204,6.0,18.0,91,0.00,,,0.00,weatherlink.com 1.10,2013-04-17 13:28:00,
2013-04-17 08:40:00,72.1,69.3,29.82,SSE,156,10.0,10.0,91,0.00,,,0.00,Wunderground v.1.15,2013-04-17 13:40:00,
2013-04-17 08:44:00,72.1,69.0,29.82,South,178,10.0,17.0,90,0.00,,,0.00,weatherlink.com 1.10,2013-04-17 13:44:00,
2013-04-17 08:50:00,72.2,69.1,29.82,SSE,159,9.0,10.0,90,0.00,,,0.00,Wunderground v.1.15,2013-04-17 13:50:00,
2013-04-17 08:55:00,72.3,68.9,29.82,South,171,9.0,12.0,89,0.00,,,0.00,Wunderground v.1.15,2013-04-17 13:55:00,
2013-04-17 08:59:00,72.3,69.0,29.82,South,180,11.0,15.0,89,0.00,,,0.00,weatherlink.com 1.10,2013-04-17 13:59:00,
2013-04-17 09:05:00,72.4,69.0,29.82,South,178,11.0,12.0,89,0.00,,,0.00,Wunderground v.1.15,2013-04-17 14:05:00,
2013-04-17 09:10:00,72.5,68.7,29.82,SSE,154,12.0,12.0,88,0.00,,,0.00,Wunderground v.1.15,2013-04-17 14:10:00,
2013-04-17 09:14:00,72.6,69.0,29.82,South,178,20.0,20.0,88,0.00,,,0.00,weatherlink.com 1.10,2013-04-17 14:14:00,
2013-04-17 09:15:00,72.6,68.8,29.82,South,180,11.0,17.0,88,0.00,,,0.00,Wunderground v.1.15,2013-04-17 14:15:00,
2013-04-17 09:20:00,72.6,68.8,29.82,SSE,165,11.0,13.0,88,0.00,,,0.00,Wunderground v.1.15,2013-04-17 14:20:00,
2013-04-17 09:25:00,72.7,68.6,29.81,South,169,13.0,13.0,87,0.00,,,0.00,Wunderground v.1.15,2013-04-17 14:25:00,
2013-04-17 09:28:00,72.8,69.0,29.82,SE,146,19.0,20.0,87,0.00,,,0.00,weatherlink.com 1.10,2013-04-17 14:28:00,
2013-04-17 09:35:00,72.9,68.5,29.82,South,172,12.0,13.0,86,0.00,,,0.00,Wunderground v.1.15,2013-04-17 14:35:00,
2013-04-17 09:44:00,73.1,68.0,29.81,South,184,15.0,22.0,85,0.00,,,0.00,weatherlink.com 1.10,2013-04-17 14:44:00,
2013-04-17 09:45:00,73.2,68.4,29.81,South,183,12.0,15.0,85,0.00,,,0.00,Wunderground v.1.15,2013-04-17 14:45:00,
2013-04-17 09:50:00,73.3,68.5,29.81,South,186,11.0,13.0,85,0.00,,,0.00,Wunderground v.1.15,2013-04-17 14:50:00,
2013-04-17 09:55:00,73.4,68.3,29.81,SSE,165,13.0,13.0,84,0.00,,,0.00,Wunderground v.1.15,2013-04-17 14:55:00,
2013-04-17 09:59:00,73.4,68.0,29.82,SSE,150,15.0,20.0,84,0.00,,,0.00,weatherlink.com 1.10,2013-04-17 14:59:00,
2013-04-17 10:05:00,73.5,68.0,29.81,SSE,155,12.0,16.0,83,0.00,,,0.00,Wunderground v.1.15,2013-04-17 15:05:00,
2013-04-17 10:10:00,73.5,68.0,29.81,South,169,13.0,13.0,83,0.00,,,0.00,Wunderground v.1.15,2013-04-17 15:10:00,
2013-04-17 10:14:00,73.6,68.0,29.81,South,172,7.0,23.0,83,0.00,,,0.00,weatherlink.com 1.10,2013-04-17 15:14:00,
2013-04-17 10:15:00,73.6,68.1,29.81,SE,134,12.0,15.0,83,0.00,,,0.00,Wunderground v.1.15,2013-04-17 15:15:00,
2013-04-17 10:20:00,73.6,67.8,29.81,SSE,166,12.0,14.0,82,0.00,,,0.00,Wunderground v.1.15,2013-04-17 15:20:00,
2013-04-17 10:25:00,73.8,68.0,29.81,SSE,155,11.0,14.0,82,0.00,,,0.00,Wunderground v.1.15,2013-04-17 15:25:00,
2013-04-17 10:29:00,73.8,68.0,29.81,SSE,151,8.0,17.0,82,0.00,,,0.00,weatherlink.com 1.10,2013-04-17 15:29:00,
2013-04-17 10:35:00,74.0,67.8,29.81,SSE,162,10.0,14.0,81,0.00,,,0.00,Wunderground v.1.15,2013-04-17 15:35:00,
2013-04-17 10:40:00,74.0,67.8,29.81,South,185,11.0,11.0,81,0.00,,,0.00,Wunderground v.1.15,2013-04-17 15:40:00,
2013-04-17 10:44:00,74.1,68.0,29.80,SSW,196,7.0,19.0,81,0.00,,,0.00,weatherlink.com 1.10,2013-04-17 15:44:00,
2013-04-17 10:50:00,74.3,67.7,29.80,South,188,10.0,10.0,80,0.00,,,0.00,Wunderground v.1.15,2013-04-17 15:50:00,
2013-04-17 10:55:00,74.5,67.9,29.80,SE,146,10.0,12.0,80,0.00,,,0.00,Wunderground v.1.15,2013-04-17 15:55:00,
2013-04-17 10:59:00,74.6,68.0,29.79,SSE,147,14.0,20.0,79,0.00,,,0.00,weatherlink.com 1.10,2013-04-17 15:59:00,
2013-04-17 11:05:00,74.4,67.5,29.79,SE,141,12.0,13.0,79,0.00,,,0.00,Wunderground v.1.15,2013-04-17 16:05:00,
2013-04-17 11:14:00,74.7,67.0,29.79,South,169,9.0,19.0,78,0.00,,,0.00,weatherlink.com 1.10,2013-04-17 16:14:00,
2013-04-17 11:20:00,74.8,67.1,29.79,SSW,202,12.0,17.0,77,0.00,,,0.00,Wunderground v.1.15,2013-04-17 16:20:00,
2013-04-17 11:29:00,75.0,67.0,29.79,South,171,13.0,23.0,76,0.00,,,0.00,weatherlink.com 1.10,2013-04-17 16:29:00,
2013-04-17 11:35:00,75.3,67.2,29.79,South,178,12.0,16.0,76,0.00,,,0.00,Wunderground v.1.15,2013-04-17 16:35:00,
2013-04-17 11:40:00,75.5,67.0,29.79,SE,144,12.0,20.0,75,0.00,,,0.00,Wunderground v.1.15,2013-04-17 16:40:00,
2013-04-17 11:44:00,75.8,67.0,29.79,South,182,18.0,23.0,74,0.00,,,0.00,weatherlink.com 1.10,2013-04-17 16:44:00,
2013-04-17 11:50:00,75.9,66.2,29.79,SSE,167,15.0,16.0,72,0.00,,,0.00,Wunderground v.1.15,2013-04-17 16:50:00,
2013-04-17 11:55:00,76.1,66.8,29.79,SSW,193,14.0,16.0,73,0.00,,,0.00,Wunderground v.1.15,2013-04-17 16:55:00,
2013-04-17 11:59:00,76.4,67.0,29.78,SSW,213,9.0,23.0,72,0.00,,,0.00,weatherlink.com 1.10,2013-04-17 16:59:00,
2013-04-17 12:05:00,76.8,66.7,29.78,South,191,13.0,13.0,71,0.00,,,0.00,Wunderground v.1.15,2013-04-17 17:05:00,
2013-04-17 12:15:00,76.7,66.6,29.77,South,175,14.0,14.0,71,0.00,,,0.00,Wunderground v.1.15,2013-04-17 17:15:00,
2013-04-17 12:16:00,76.8,67.0,29.77,South,189,16.0,21.0,71,0.00,,,0.00,weatherlink.com 1.10,2013-04-17 17:16:00,
2013-04-17 12:25:00,76.9,66.4,29.77,SSW,193,13.0,17.0,70,0.00,,,0.00,Wunderground v.1.15,2013-04-17 17:25:00,
2013-04-17 12:30:00,77.1,66.1,29.76,SSW,196,15.0,15.0,69,0.00,,,0.00,Wunderground v.1.15,2013-04-17 17:30:00,
2013-04-17 12:31:00,77.2,66.0,29.76,SSW,199,19.0,26.0,69,0.00,,,0.00,weatherlink.com 1.10,2013-04-17 17:31:00,
2013-04-17 12:40:00,77.1,66.6,29.76,South,172,14.0,15.0,70,0.00,,,0.00,Wunderground v.1.15,2013-04-17 17:40:00,
2013-04-17 12:45:00,77.1,66.6,29.76,South,187,12.0,18.0,70,0.00,,,0.00,Wunderground v.1.15,2013-04-17 17:45:00,
2013-04-17 12:46:00,77.1,67.0,29.76,SSE,156,10.0,19.0,70,0.00,,,0.00,weatherlink.com 1.10,2013-04-17 17:46:00,
2013-04-17 12:55:00,77.7,66.7,29.75,SSE,167,12.0,12.0,69,0.00,,,0.00,Wunderground v.1.15,2013-04-17 17:55:00,
2013-04-17 13:00:00,78.2,65.9,29.75,SSW,204,12.0,12.0,66,0.00,,,0.00,Wunderground v.1.15,2013-04-17 18:00:00,
2013-04-17 13:01:00,78.2,66.0,29.75,SSW,194,23.0,25.0,66,0.00,,,0.00,weatherlink.com 1.10,2013-04-17 18:01:00,
2013-04-17 13:10:00,78.2,65.9,29.75,South,191,14.0,15.0,66,0.00,,,0.00,Wunderground v.1.15,2013-04-17 18:10:00,
2013-04-17 13:15:00,78.2,66.3,29.75,SSE,157,14.0,15.0,67,0.00,,,0.00,Wunderground v.1.15,2013-04-17 18:15:00,
2013-04-17 13:16:00,78.2,66.0,29.75,SSE,165,14.0,24.0,66,0.00,,,0.00,weatherlink.com 1.10,2013-04-17 18:16:00,
2013-04-17 13:25:00,78.7,65.9,29.74,SSW,194,14.0,14.0,65,0.00,,,0.00,Wunderground v.1.15,2013-04-17 18:25:00,
2013-04-17 13:35:00,79.1,66.3,29.74,South,177,14.0,14.0,65,0.00,,,0.00,Wunderground v.1.15,2013-04-17 18:35:00,
2013-04-17 13:45:00,79.3,66.1,29.74,SE,145,14.0,17.0,64,0.00,,,0.00,Wunderground v.1.15,2013-04-17 18:45:00,
2013-04-17 13:46:00,79.3,66.0,29.73,SE,140,8.0,23.0,64,0.00,,,0.00,weatherlink.com 1.10,2013-04-17 18:46:00,
2013-04-17 13:50:00,79.6,66.3,29.73,SSE,167,14.0,15.0,64,0.00,,,0.00,Wunderground v.1.15,2013-04-17 18:50:00,
2013-04-17 14:00:00,79.4,66.6,29.72,SSW,199,13.0,13.0,65,0.00,,,0.00,Wunderground v.1.15,2013-04-17 19:00:00,
2013-04-17 14:01:00,79.4,66.0,29.72,SW,215,12.0,22.0,64,0.00,,,0.00,weatherlink.com 1.10,2013-04-17 19:01:00,
2013-04-17 14:10:00,79.8,66.5,29.71,SSE,164,13.0,13.0,64,0.00,,,0.00,Wunderground v.1.15,2013-04-17 19:10:00,
2013-04-17 14:16:00,80.0,67.0,29.71,SSE,161,13.0,27.0,64,0.00,,,0.00,weatherlink.com 1.10,2013-04-17 19:16:00,
2013-04-17 14:20:00,80.2,66.5,29.71,SSW,198,13.0,13.0,63,0.00,,,0.00,Wunderground v.1.15,2013-04-17 19:20:00,
2013-04-17 14:30:00,80.4,66.6,29.70,South,176,14.0,14.0,63,0.00,,,0.00,Wunderground v.1.15,2013-04-17 19:30:00,
2013-04-17 14:40:00,80.5,66.7,29.70,SSW,196,14.0,14.0,63,0.00,,,0.00,Wunderground v.1.15,2013-04-17 19:40:00,
2013-04-17 14:45:00,80.3,67.0,29.69,SSW,200,14.0,14.0,64,0.00,,,0.00,Wunderground v.1.15,2013-04-17 19:45:00,
2013-04-17 14:46:00,80.4,67.0,29.69,SSE,154,17.0,24.0,64,0.00,,,0.00,weatherlink.com 1.10,2013-04-17 19:46:00,
2013-04-17 14:55:00,80.6,67.3,29.69,SSW,198,12.0,13.0,64,0.00,,,0.00,Wunderground v.1.15,2013-04-17 19:55:00,
2013-04-17 15:00:00,80.5,66.7,29.69,SE,139,12.0,12.0,63,0.00,,,0.00,Wunderground v.1.15,2013-04-17 20:00:00,
2013-04-17 15:02:00,80.4,67.0,29.68,South,171,12.0,21.0,64,0.00,,,0.00,weatherlink.com 1.10,2013-04-17 20:02:00,
2013-04-17 15:10:00,80.2,66.9,29.68,SSE,163,13.0,18.0,64,0.00,,,0.00,Wunderground v.1.15,2013-04-17 20:10:00,
2013-04-17 15:15:00,80.6,67.3,29.67,East,101,12.0,18.0,64,0.00,,,0.00,Wunderground v.1.15,2013-04-17 20:15:00,
2013-04-17 15:16:00,80.8,67.0,29.67,SSE,153,13.0,26.0,63,0.00,,,0.00,weatherlink.com 1.10,2013-04-17 20:16:00,
2013-04-17 15:25:00,81.2,67.4,29.67,SSW,192,12.0,19.0,63,0.00,,,0.00,Wunderground v.1.15,2013-04-17 20:25:00,
2013-04-17 15:30:00,81.2,67.4,29.67,South,175,12.0,16.0,63,0.00,,,0.00,Wunderground v.1.15,2013-04-17 20:30:00,
2013-04-17 15:32:00,81.2,67.0,29.67,SSE,153,12.0,23.0,63,0.00,,,0.00,weatherlink.com 1.10,2013-04-17 20:32:00,
2013-04-17 15:35:00,81.3,67.5,29.67,ESE,111,13.0,16.0,63,0.00,,,0.00,Wunderground v.1.15,2013-04-17 20:35:00,
2013-04-17 15:45:00,81.5,67.7,29.66,SSE,149,12.0,16.0,63,0.00,,,0.00,Wunderground v.1.15,2013-04-17 20:45:00,
2013-04-17 15:47:00,81.5,67.0,29.66,SSE,158,16.0,20.0,62,0.00,,,0.00,weatherlink.com 1.10,2013-04-17 20:47:00,
2013-04-17 15:55:00,81.0,67.2,29.66,South,169,12.0,13.0,63,0.00,,,0.00,Wunderground v.1.15,2013-04-17 20:55:00,
2013-04-17 16:02:00,80.5,67.0,29.66,SSW,209,8.0,22.0,64,0.00,,,0.00,weatherlink.com 1.10,2013-04-17 21:02:00,
2013-04-17 16:10:00,80.2,67.4,29.66,SSE,159,12.0,13.0,65,0.00,,,0.00,Wunderground v.1.15,2013-04-17 21:10:00,
2013-04-17 16:15:00,80.1,67.3,29.66,SSE,163,12.0,19.0,65,0.00,,,0.00,Wunderground v.1.15,2013-04-17 21:15:00,
2013-04-17 16:17:00,80.0,67.0,29.65,South,184,10.0,22.0,65,0.00,,,0.00,weatherlink.com 1.10,2013-04-17 21:17:00,
2013-04-17 16:25:00,80.0,67.2,29.65,SE,133,13.0,14.0,65,0.00,,,0.00,Wunderground v.1.15,2013-04-17 21:25:00,
2013-04-17 16:32:00,80.0,67.0,29.64,SE,141,11.0,21.0,65,0.00,,,0.00,weatherlink.com 1.10,2013-04-17 21:32:00,
2013-04-17 16:40:00,80.3,67.5,29.64,SSE,153,11.0,11.0,65,0.00,,,0.00,Wunderground v.1.15,2013-04-17 21:40:00,
2013-04-17 16:47:00,80.2,67.0,29.64,SSE,159,6.0,18.0,65,0.00,,,0.00,weatherlink.com 1.10,2013-04-17 21:47:00,
2013-04-17 16:55:00,80.1,67.3,29.64,SSE,167,12.0,13.0,65,0.00,,,0.00,Wunderground v.1.15,2013-04-17 21:55:00,
2013-04-17 17:00:00,80.2,67.4,29.63,SSE,166,12.0,12.0,65,0.00,,,0.00,Wunderground v.1.15,2013-04-17 22:00:00,
2013-04-17 17:02:00,80.2,67.0,29.63,South,184,11.0,23.0,65,0.00,,,0.00,weatherlink.com 1.10,2013-04-17 22:02:00,
2013-04-17 17:05:00,80.1,67.7,29.63,ESE,119,12.0,12.0,66,0.00,,,0.00,Wunderground v.1.15,2013-04-17 22:05:00,
2013-04-17 17:10:00,80.1,67.7,29.63,South,187,11.0,11.0,66,0.00,,,0.00,Wunderground v.1.15,2013-04-17 22:10:00,
2013-04-17 17:15:00,79.8,67.9,29.62,SE,130,11.0,12.0,67,0.00,,,0.00,Wunderground v.1.15,2013-04-17 22:15:00,
2013-04-17 17:19:00,79.6,68.0,29.62,SE,134,10.0,19.0,67,0.00,,,0.00,weatherlink.com 1.10,2013-04-17 22:19:00,
2013-04-17 17:25:00,79.5,68.0,29.61,SE,126,10.0,15.0,68,0.00,,,0.00,Wunderground v.1.15,2013-04-17 22:25:00,
2013-04-17 17:30:00,79.4,67.9,29.61,SSE,160,10.0,10.0,68,0.00,,,0.00,Wunderground v.1.15,2013-04-17 22:30:00,
2013-04-17 17:34:00,79.5,68.0,29.60,SSE,153,10.0,18.0,68,0.00,,,0.00,weatherlink.com 1.10,2013-04-17 22:34:00,
2013-04-17 17:35:00,79.5,68.0,29.60,SSE,150,10.0,15.0,68,0.00,,,0.00,Wunderground v.1.15,2013-04-17 22:35:00,
2013-04-17 17:40:00,79.5,68.0,29.60,SE,146,10.0,10.0,68,0.00,,,0.00,Wunderground v.1.15,2013-04-17 22:40:00,
2013-04-17 17:45:00,79.4,67.9,29.60,SE,146,12.0,16.0,68,0.00,,,0.00,Wunderground v.1.15,2013-04-17 22:45:00,
2013-04-17 17:49:00,79.3,68.0,29.61,SSE,161,9.0,22.0,68,0.00,,,0.00,weatherlink.com 1.10,2013-04-17 22:49:00,
2013-04-17 17:55:00,79.3,67.8,29.60,South,169,12.0,14.0,68,0.00,,,0.00,Wunderground v.1.15,2013-04-17 22:55:00,
2013-04-17 18:00:00,79.3,67.8,29.60,SSE,162,10.0,12.0,68,0.00,,,0.00,Wunderground v.1.15,2013-04-17 23:00:00,
2013-04-17 18:03:00,79.3,68.0,29.60,SSE,165,11.0,22.0,68,0.00,,,0.00,weatherlink.com 1.10,2013-04-17 23:03:00,
2013-04-17 18:10:00,79.2,67.7,29.60,SSE,164,11.0,16.0,68,0.00,,,0.00,Wunderground v.1.15,2013-04-17 23:10:00,
2013-04-17 18:15:00,79.1,67.6,29.61,ESE,117,13.0,16.0,68,0.00,,,0.00,Wunderground v.1.15,2013-04-17 23:15:00,
2013-04-17 18:19:00,79.0,68.0,29.60,ESE,111,7.0,25.0,68,0.00,,,0.00,weatherlink.com 1.10,2013-04-17 23:19:00,
2013-04-17 18:25:00,78.9,67.9,29.60,SE,124,13.0,14.0,69,0.00,,,0.00,Wunderground v.1.15,2013-04-17 23:25:00,
2013-04-17 18:34:00,78.6,68.0,29.59,South,172,18.0,30.0,69,0.00,,,0.00,weatherlink.com 1.10,2013-04-17 23:34:00,
2013-04-17 18:35:00,78.6,67.6,29.59,SSE,168,13.0,14.0,69,0.00,,,0.00,Wunderground v.1.15,2013-04-17 23:35:00,
2013-04-17 18:40:00,78.5,67.5,29.58,SSE,157,14.0,21.0,69,0.00,,,0.00,Wunderground v.1.15,2013-04-17 23:40:00,
2013-04-17 18:45:00,78.5,67.5,29.58,SSE,150,14.0,21.0,69,0.00,,,0.00,Wunderground v.1.15,2013-04-17 23:45:00,
2013-04-17 18:49:00,78.4,67.0,29.58,SSE,153,13.0,23.0,69,0.00,,,0.00,weatherlink.com 1.10,2013-04-17 23:49:00,
2013-04-17 18:55:00,78.4,67.4,29.58,SSE,157,13.0,17.0,69,0.00,,,0.00,Wunderground v.1.15,2013-04-17 23:55:00,
2013-04-17 19:00:00,78.4,67.4,29.57,SE,130,13.0,13.0,69,0.00,,,0.00,Wunderground v.1.15,2013-04-18 00:00:00,
2013-04-17 19:04:00,78.4,67.0,29.57,SE,130,13.0,24.0,69,0.00,,,0.00,weatherlink.com 1.10,2013-04-18 00:04:00,
2013-04-17 19:10:00,78.3,67.3,29.57,ESE,112,12.0,12.0,69,0.00,,,0.00,Wunderground v.1.15,2013-04-18 00:10:00,
2013-04-17 19:15:00,78.2,67.2,29.57,South,170,11.0,12.0,69,0.00,,,0.00,Wunderground v.1.15,2013-04-18 00:15:00,
2013-04-17 19:19:00,78.2,67.0,29.57,SSE,150,18.0,21.0,69,0.00,,,0.00,weatherlink.com 1.10,2013-04-18 00:19:00,
2013-04-17 19:25:00,78.2,67.2,29.57,SE,141,15.0,17.0,69,0.00,,,0.00,Wunderground v.1.15,2013-04-18 00:25:00,
2013-04-17 19:30:00,78.1,67.1,29.57,SE,140,15.0,17.0,69,0.00,,,0.00,Wunderground v.1.15,2013-04-18 00:30:00,
2013-04-17 19:34:00,78.1,67.0,29.56,SSE,164,11.0,30.0,69,0.00,,,0.00,weatherlink.com 1.10,2013-04-18 00:34:00,
2013-04-17 19:40:00,77.9,67.3,29.56,SSE,165,15.0,24.0,70,0.00,,,0.00,Wunderground v.1.15,2013-04-18 00:40:00,
2013-04-17 19:49:00,77.8,67.0,29.56,South,170,12.0,29.0,70,0.00,,,0.00,weatherlink.com 1.10,2013-04-18 00:49:00,
2013-04-17 19:55:00,77.7,67.1,29.57,SSW,209,16.0,20.0,70,0.00,,,0.00,Wunderground v.1.15,2013-04-18 00:55:00,
2013-04-17 20:00:00,77.7,67.1,29.56,SSE,148,16.0,16.0,70,0.00,,,0.00,Wunderground v.1.15,2013-04-18 01:00:00,
2013-04-17 20:04:00,77.6,67.0,29.56,SSE,150,17.0,30.0,70,0.00,,,0.00,weatherlink.com 1.10,2013-04-18 01:04:00,
2013-04-17 20:10:00,77.5,66.9,29.55,SSE,150,15.0,15.0,70,0.00,,,0.00,Wunderground v.1.15,2013-04-18 01:10:00,
2013-04-17 20:15:00,77.5,66.9,29.55,SSE,155,13.0,15.0,70,0.00,,,0.00,Wunderground v.1.15,2013-04-18 01:15:00,
2013-04-17 20:19:00,77.5,67.0,29.55,SSE,163,16.0,27.0,70,0.00,,,0.00,weatherlink.com 1.10,2013-04-18 01:19:00,
2013-04-17 20:25:00,77.5,66.9,29.54,SSE,150,16.0,23.0,70,0.00,,,0.00,Wunderground v.1.15,2013-04-18 01:25:00,
2013-04-17 20:30:00,77.5,66.9,29.55,SSW,197,18.0,18.0,70,0.00,,,0.00,Wunderground v.1.15,2013-04-18 01:30:00,
2013-04-17 20:45:00,77.4,66.8,29.55,SE,139,16.0,26.0,70,0.00,,,0.00,Wunderground v.1.15,2013-04-18 01:45:00,
2013-04-17 20:49:00,77.4,67.0,29.55,SSE,148,17.0,31.0,70,0.00,,,0.00,weatherlink.com 1.10,2013-04-18 01:49:00,
2013-04-17 20:55:00,77.4,66.8,29.55,SSE,152,17.0,17.0,70,0.00,,,0.00,Wunderground v.1.15,2013-04-18 01:55:00,
2013-04-17 21:00:00,77.3,66.7,29.56,SE,136,15.0,15.0,70,0.00,,,0.00,Wunderground v.1.15,2013-04-18 02:00:00,
2013-04-17 21:04:00,77.3,67.0,29.56,SSW,202,12.0,27.0,70,0.00,,,0.00,weatherlink.com 1.10,2013-04-18 02:04:00,
2013-04-17 21:10:00,77.3,66.7,29.56,SSE,159,14.0,15.0,70,0.00,,,0.00,Wunderground v.1.15,2013-04-18 02:10:00,
2013-04-17 21:19:00,77.3,67.0,29.55,South,171,19.0,33.0,70,0.00,,,0.00,weatherlink.com 1.10,2013-04-18 02:19:00,
2013-04-17 21:20:00,77.2,66.7,29.56,South,169,17.0,17.0,70,0.00,,,0.00,Wunderground v.1.15,2013-04-18 02:20:00,
2013-04-17 21:25:00,77.1,66.6,29.55,SSE,152,17.0,17.0,70,0.00,,,0.00,Wunderground v.1.15,2013-04-18 02:25:00,
2013-04-17 21:30:00,77.1,66.6,29.56,South,186,16.0,16.0,70,0.00,,,0.00,Wunderground v.1.15,2013-04-18 02:30:00,
2013-04-17 21:36:00,77.1,67.0,29.56,SSE,158,14.0,35.0,70,0.00,,,0.00,weatherlink.com 1.10,2013-04-18 02:36:00,
2013-04-17 21:45:00,76.8,66.3,29.56,South,175,14.0,22.0,70,0.00,,,0.00,Wunderground v.1.15,2013-04-18 02:45:00,
2013-04-17 21:50:00,76.7,66.2,29.55,South,182,14.0,14.0,70,0.00,,,0.00,Wunderground v.1.15,2013-04-18 02:50:00,
2013-04-17 21:51:00,76.7,66.0,29.55,South,169,12.0,25.0,70,0.00,,,0.00,weatherlink.com 1.10,2013-04-18 02:51:00,
2013-04-17 21:55:00,76.7,66.2,29.55,SSE,165,14.0,21.0,70,0.00,,,0.00,Wunderground v.1.15,2013-04-18 02:55:00,
2013-04-17 22:00:00,76.7,66.2,29.54,SE,139,15.0,15.0,70,0.00,,,0.00,Wunderground v.1.15,2013-04-18 03:00:00,
2013-04-17 22:06:00,76.5,66.0,29.54,SE,131,14.0,26.0,71,0.00,,,0.00,weatherlink.com 1.10,2013-04-18 03:06:00,
2013-04-17 22:15:00,76.4,66.3,29.53,SSW,208,15.0,25.0,71,0.00,,,0.00,Wunderground v.1.15,2013-04-18 03:15:00,
2013-04-17 22:20:00,76.3,66.6,29.54,SSE,157,16.0,23.0,72,0.00,,,0.00,Wunderground v.1.15,2013-04-18 03:20:00,
2013-04-17 22:30:00,76.0,66.3,29.53,SSE,152,18.0,18.0,72,0.00,,,0.00,Wunderground v.1.15,2013-04-18 03:30:00,
2013-04-17 22:35:00,75.9,66.6,29.53,SSW,192,17.0,18.0,73,0.00,,,0.00,Wunderground v.1.15,2013-04-18 03:35:00,
2013-04-17 22:36:00,75.9,67.0,29.53,South,169,19.0,25.0,73,0.00,,,0.00,weatherlink.com 1.10,2013-04-18 03:36:00,
2013-04-17 22:45:00,75.7,66.8,29.53,SSE,155,17.0,17.0,74,0.00,,,0.00,Wunderground v.1.15,2013-04-18 03:45:00,
2013-04-17 22:55:00,75.7,67.2,29.52,South,180,18.0,21.0,75,0.00,,,0.00,Wunderground v.1.15,2013-04-18 03:55:00,
2013-04-17 23:00:00,75.8,67.3,29.52,SSE,165,20.0,20.0,75,0.00,,,0.00,Wunderground v.1.15,2013-04-18 04:00:00,
2013-04-17 23:05:00,75.8,67.3,29.53,SSE,165,20.0,23.0,75,0.00,,,0.00,Wunderground v.1.15,2013-04-18 04:05:00,
2013-04-17 23:06:00,75.8,67.0,29.53,South,186,22.0,31.0,75,0.00,,,0.00,weatherlink.com 1.10,2013-04-18 04:06:00,
2013-04-17 23:15:00,75.8,67.7,29.52,South,171,20.0,21.0,76,0.00,,,0.00,Wunderground v.1.15,2013-04-18 04:15:00,
2013-04-17 23:20:00,75.8,67.7,29.53,South,178,18.0,19.0,76,0.00,,,0.00,Wunderground v.1.15,2013-04-18 04:20:00,
2013-04-17 23:21:00,75.8,68.0,29.53,SE,132,13.0,33.0,76,0.00,,,0.00,weatherlink.com 1.10,2013-04-18 04:21:00,
2013-04-17 23:30:00,76.0,68.3,29.53,SE,146,19.0,25.0,77,0.00,,,0.00,Wunderground v.1.15,2013-04-18 04:30:00,
2013-04-17 23:35:00,76.0,68.3,29.52,SSW,198,19.0,25.0,77,0.00,,,0.00,Wunderground v.1.15,2013-04-18 04:35:00,
2013-04-17 23:40:00,76.0,68.3,29.52,South,173,20.0,22.0,77,0.00,,,0.00,Wunderground v.1.15,2013-04-18 04:40:00,
2013-04-17 23:45:00,76.0,68.3,29.52,South,190,19.0,22.0,77,0.00,,,0.00,Wunderground v.1.15,2013-04-18 04:45:00,
2013-04-17 23:50:00,75.9,68.2,29.52,SSW,211,20.0,20.0,77,0.00,,,0.00,Wunderground v.1.15,2013-04-18 04:50:00,
2013-04-17 23:55:00,75.9,68.5,29.53,South,185,20.0,20.0,78,0.00,,,0.00,Wunderground v.1.15,2013-04-18 04:55:00,